VJT13 SAZN-SABE

Flight info

Callsign VJT13
Flight time N/A
Altitude 29000
Route NIDBA3C NIDBA DCT ISMIL UT655 ASADA ASADA9R
Aircraft SF50/L-SDGRWY/L

Departure

Time 2026-05-07 19:06
Airport Presidente Perón International Airport (SAZN)

Arrival

Time N/A
Airport Aeroparque Jorge Newbery (SABE)
Time Latitude Longitude Altitude Speed Heading
2026-05-07 18:52 -38.95161 -68.14066 890 ft 0 kts 180°
2026-05-07 19:00 -38.95162 -68.14066 890 ft 0 kts 207°
2026-05-07 19:00 -38.95162 -68.14073 890 ft 1 kts 320°
2026-05-07 19:00 -38.95141 -68.14070 890 ft 6 kts 43°
2026-05-07 19:01 -38.95099 -68.14003 890 ft 12 kts 51°
2026-05-07 19:01 -38.95047 -68.13921 889 ft 0 kts 45°
2026-05-07 19:01 -38.95041 -68.13923 889 ft 2 kts 304°
2026-05-07 19:02 -38.95045 -68.13984 890 ft 13 kts 268°
2026-05-07 19:02 -38.95023 -68.14020 890 ft 0 kts 317°
2026-05-07 19:04 -38.95021 -68.14022 890 ft 0 kts 317°
2026-05-07 19:04 -38.95010 -68.14036 890 ft 4 kts 315°
2026-05-07 19:04 -38.94973 -68.14083 890 ft 11 kts 317°
2026-05-07 19:05 -38.94915 -68.14200 890 ft 19 kts 277°
2026-05-07 19:05 -38.94915 -68.14513 890 ft 59 kts 268°
2026-05-07 19:05 -38.94935 -68.15269 959 ft 99 kts 262°
2026-05-07 19:05 -38.94977 -68.16226 1194 ft 114 kts 259°
2026-05-07 19:06 -38.94926 -68.17248 1675 ft 112 kts 274°
2026-05-07 19:06 -38.94849 -68.19140 2689 ft 107 kts 259°
2026-05-07 19:06 -38.94751 -68.20261 2899 ft 145 kts 271°
2026-05-07 19:07 -38.94489 -68.21548 3497 ft 152 kts 271°
2026-05-07 19:07 -38.94246 -68.22938 3896 ft 166 kts 270°
2026-05-07 19:07 -38.94116 -68.24500 4034 ft 194 kts 265°
2026-05-07 19:07 -38.94326 -68.26133 4603 ft 183 kts 237°
2026-05-07 19:08 -38.94784 -68.27612 5318 ft 183 kts 253°
2026-05-07 19:08 -38.94640 -68.29059 5964 ft 194 kts 285°
2026-05-07 19:08 -38.93945 -68.30042 6224 ft 225 kts 317°
2026-05-07 19:08 -38.92349 -68.30474 6808 ft 247 kts
2026-05-07 19:09 -38.90765 -68.29601 7303 ft 258 kts 31°
2026-05-07 19:09 -38.89485 -68.27976 7808 ft 260 kts 58°
2026-05-07 19:09 -38.88634 -68.25956 8309 ft 262 kts 66°
2026-05-07 19:09 -38.87866 -68.23880 8906 ft 259 kts 69°
2026-05-07 19:10 -38.87074 -68.21719 9144 ft 273 kts 69°
2026-05-07 19:10 -38.86261 -68.19527 9592 ft 275 kts 69°
2026-05-07 19:10 -38.85439 -68.17303 9940 ft 281 kts 69°
2026-05-07 19:10 -38.84590 -68.15017 10346 ft 285 kts 69°
2026-05-07 19:11 -38.83780 -68.12732 10806 ft 282 kts 76°
2026-05-07 19:11 -38.83203 -68.10345 11122 ft 285 kts 81°
2026-05-07 19:11 -38.82670 -68.07930 11554 ft 285 kts 81°
2026-05-07 19:11 -38.82124 -68.05468 11921 ft 287 kts 81°
2026-05-07 19:12 -38.81575 -68.03001 12267 ft 291 kts 81°
2026-05-07 19:12 -38.81015 -68.00488 12676 ft 291 kts 82°
2026-05-07 19:12 -38.80464 -67.98006 13021 ft 292 kts 81°
2026-05-07 19:12 -38.79899 -67.95488 13390 ft 293 kts 81°
2026-05-07 19:13 -38.79339 -67.92979 13711 ft 296 kts 81°
2026-05-07 19:13 -38.78768 -67.90429 14053 ft 297 kts 81°
2026-05-07 19:13 -38.78204 -67.87915 14393 ft 298 kts 82°
2026-05-07 19:13 -38.77629 -67.85346 14708 ft 299 kts 82°
2026-05-07 19:14 -38.77059 -67.82804 15003 ft 301 kts 82°
2026-05-07 19:14 -38.76474 -67.80209 15344 ft 300 kts 82°
2026-05-07 19:14 -38.75894 -67.77634 15630 ft 302 kts 82°
2026-05-07 19:14 -38.75311 -67.75045 15899 ft 304 kts 82°
2026-05-07 19:15 -38.74729 -67.72466 16170 ft 305 kts 82°
2026-05-07 19:15 -38.74126 -67.69783 16169 ft 317 kts 82°
2026-05-07 19:15 -38.73511 -67.67062 16171 ft 326 kts 82°
2026-05-07 19:15 -38.72872 -67.64250 16277 ft 329 kts 82°
2026-05-07 19:16 -38.72231 -67.61427 16459 ft 329 kts 82°
2026-05-07 19:16 -38.71597 -67.58633 16611 ft 330 kts 81°
2026-05-07 19:16 -38.70655 -67.55875 16774 ft 338 kts 69°
2026-05-07 19:16 -38.69575 -67.53222 16922 ft 340 kts 69°
2026-05-07 19:17 -38.68471 -67.50523 17071 ft 340 kts 69°
2026-05-07 19:17 -38.67381 -67.47852 17228 ft 340 kts 69°
2026-05-07 19:17 -38.66288 -67.45177 17385 ft 340 kts 69°
2026-05-07 19:17 -38.65192 -67.42493 17526 ft 341 kts 69°
2026-05-07 19:18 -38.64092 -67.39802 17687 ft 341 kts 69°
2026-05-07 19:18 -38.62984 -67.37094 17804 ft 342 kts 69°
2026-05-07 19:18 -38.61883 -67.34407 17955 ft 342 kts 68°
2026-05-07 19:18 -38.60773 -67.31699 18055 ft 343 kts 68°
2026-05-07 19:19 -38.59669 -67.29014 18169 ft 343 kts 68°
2026-05-07 19:19 -38.58561 -67.26318 18296 ft 343 kts 68°
2026-05-07 19:19 -38.57455 -67.23633 18400 ft 344 kts 68°
2026-05-07 19:19 -38.56339 -67.20924 18496 ft 345 kts 68°
2026-05-07 19:20 -38.55236 -67.18202 18592 ft 345 kts 67°
2026-05-07 19:20 -38.54111 -67.15499 18670 ft 346 kts 67°
2026-05-07 19:20 -38.52987 -67.12794 18783 ft 346 kts 67°
2026-05-07 19:20 -38.51854 -67.10057 18873 ft 347 kts 67°
2026-05-07 19:21 -38.50723 -67.07325 18988 ft 347 kts 67°
2026-05-07 19:21 -38.49593 -67.04597 19066 ft 348 kts 67°
2026-05-07 19:21 -38.48477 -67.01904 19160 ft 348 kts 67°
2026-05-07 19:21 -38.47345 -66.99174 19249 ft 348 kts 67°
2026-05-07 19:22 -38.46214 -66.96448 19333 ft 349 kts 67°
2026-05-07 19:22 -38.45076 -66.93709 19425 ft 349 kts 67°
2026-05-07 19:22 -38.43934 -66.90964 19494 ft 349 kts 67°
2026-05-07 19:22 -38.42791 -66.88220 19571 ft 350 kts 67°
2026-05-07 19:23 -38.41663 -66.85510 19663 ft 350 kts 67°
2026-05-07 19:23 -38.40503 -66.82729 19734 ft 350 kts 67°
2026-05-07 19:23 -38.39362 -66.79997 19809 ft 350 kts 66°
2026-05-07 19:23 -38.38212 -66.77242 19882 ft 351 kts 67°
2026-05-07 19:24 -38.37072 -66.74515 19937 ft 352 kts 66°
2026-05-07 19:24 -38.35925 -66.71774 20011 ft 352 kts 67°
2026-05-07 19:24 -38.34760 -66.68991 20071 ft 352 kts 66°
2026-05-07 19:24 -38.33613 -66.66258 20147 ft 352 kts 66°
2026-05-07 19:25 -38.32457 -66.63506 20217 ft 352 kts 66°
2026-05-07 19:25 -38.31296 -66.60741 20261 ft 353 kts 66°
2026-05-07 19:25 -38.30158 -66.58044 20636 ft 343 kts 67°
2026-05-07 19:25 -38.29031 -66.55367 20846 ft 340 kts 68°
2026-05-07 19:26 -38.27928 -66.52750 21105 ft 336 kts 68°
2026-05-07 19:26 -38.26836 -66.50162 21359 ft 334 kts 68°
2026-05-07 19:26 -38.25738 -66.47557 21613 ft 331 kts 69°
2026-05-07 19:26 -38.24651 -66.44977 21753 ft 333 kts 69°
2026-05-07 19:27 -38.23568 -66.42385 21887 ft 335 kts 69°
2026-05-07 19:27 -38.22459 -66.39780 22025 ft 338 kts 69°
2026-05-07 19:27 -38.21328 -66.37128 22178 ft 339 kts 69°
2026-05-07 19:27 -38.20214 -66.34497 22318 ft 341 kts 69°
2026-05-07 19:28 -38.19088 -66.31821 22469 ft 342 kts 69°
2026-05-07 19:28 -38.17955 -66.29161 22609 ft 344 kts 69°
2026-05-07 19:28 -38.16818 -66.26486 22734 ft 345 kts 69°
2026-05-07 19:28 -38.15677 -66.23813 22864 ft 347 kts 69°
2026-05-07 19:29 -38.14528 -66.21116 22993 ft 348 kts 70°
2026-05-07 19:29 -38.13363 -66.18377 23131 ft 349 kts 70°
2026-05-07 19:29 -38.12203 -66.15668 23270 ft 350 kts 70°
2026-05-07 19:29 -38.11048 -66.12970 23406 ft 351 kts 70°
2026-05-07 19:30 -38.09873 -66.10210 23552 ft 351 kts 71°
2026-05-07 19:30 -38.08712 -66.07498 23693 ft 352 kts 71°
2026-05-07 19:30 -38.07547 -66.04771 23828 ft 354 kts 71°
2026-05-07 19:30 -38.06361 -66.02013 23980 ft 354 kts 71°
2026-05-07 19:31 -38.05183 -65.99262 24123 ft 355 kts 71°
2026-05-07 19:31 -38.04006 -65.96514 24268 ft 355 kts 71°
2026-05-07 19:31 -38.02821 -65.93755 24417 ft 355 kts 71°
2026-05-07 19:31 -38.01648 -65.91021 24559 ft 354 kts 72°
2026-05-07 19:32 -38.00457 -65.88258 24718 ft 356 kts 71°
2026-05-07 19:32 -37.99262 -65.85489 24847 ft 358 kts 71°
2026-05-07 19:32 -37.98074 -65.82725 24998 ft 358 kts 72°
2026-05-07 19:32 -37.96883 -65.79963 25138 ft 358 kts 72°
2026-05-07 19:33 -37.95690 -65.77193 25302 ft 357 kts 71°
2026-05-07 19:33 -37.94496 -65.74428 25460 ft 358 kts 72°
2026-05-07 19:33 -37.93297 -65.71652 25611 ft 358 kts 72°
2026-05-07 19:33 -37.92119 -65.68922 25758 ft 357 kts 72°
2026-05-07 19:34 -37.90938 -65.66167 25909 ft 356 kts 72°
2026-05-07 19:34 -37.89766 -65.63400 26063 ft 356 kts 72°
2026-05-07 19:34 -37.88598 -65.60640 26186 ft 355 kts 72°
2026-05-07 19:34 -37.87438 -65.57898 26297 ft 357 kts 72°
2026-05-07 19:35 -37.86261 -65.55117 26436 ft 356 kts 72°
2026-05-07 19:35 -37.85104 -65.52372 26539 ft 356 kts 72°
2026-05-07 19:35 -37.83937 -65.49612 26659 ft 356 kts 71°
2026-05-07 19:35 -37.82656 -65.46931 26778 ft 357 kts 69°
2026-05-07 19:36 -37.81412 -65.44235 26825 ft 357 kts 70°
2026-05-07 19:36 -37.80192 -65.41482 26828 ft 359 kts 71°
2026-05-07 19:36 -37.78980 -65.38720 26829 ft 361 kts 71°
2026-05-07 19:36 -37.72708 -65.24411 26816 ft 363 kts 69°
2026-05-07 19:37 -37.52743 -64.79211 26794 ft 364 kts 66°
2026-05-07 19:37 -37.32775 -64.34695 26902 ft 363 kts 64°
2026-05-07 19:37 -37.25334 -64.18465 26811 ft 363 kts 64°
2026-05-07 19:37 -37.22814 -64.12974 26834 ft 361 kts 64°
2026-05-07 19:38 -37.20274 -64.07456 26835 ft 360 kts 64°
2026-05-07 19:38 -37.17776 -64.02029 26835 ft 359 kts 64°
2026-05-07 19:38 -37.15254 -63.96519 26838 ft 358 kts 62°
2026-05-07 19:38 -37.12754 -63.91079 26833 ft 356 kts 60°
2026-05-07 19:39 -37.10289 -63.85737 26834 ft 354 kts 60°
2026-05-07 19:39 -37.07816 -63.80377 26834 ft 353 kts 60°
2026-05-07 19:39 -37.05302 -63.74936 26836 ft 352 kts 60°
2026-05-07 19:39 -37.03688 -63.71446 26837 ft 351 kts 60°
2026-05-07 19:40 -37.00386 -63.64314 26837 ft 350 kts 60°
2026-05-07 19:40 -36.97935 -63.59032 26838 ft 349 kts 60°
2026-05-07 19:40 -36.95464 -63.53712 25987 ft 362 kts 59°
2026-05-07 19:40 -36.92898 -63.48200 25844 ft 361 kts 58°
2026-05-07 19:41 -36.90351 -63.42740 26049 ft 354 kts 58°
2026-05-07 19:41 -36.87915 -63.37525 26801 ft 340 kts 59°
2026-05-07 19:41 -36.85463 -63.32289 26825 ft 340 kts 58°
2026-05-07 19:41 -36.83053 -63.27146 26827 ft 340 kts 57°
2026-05-07 19:42 -36.80655 -63.22035 26828 ft 340 kts 57°
2026-05-07 19:42 -36.78259 -63.16936 26830 ft 340 kts 57°
2026-05-07 19:42 -36.75841 -63.11798 26829 ft 340 kts 56°
2026-05-07 19:42 -36.73432 -63.06687 26825 ft 340 kts 56°
2026-05-07 19:43 -36.71004 -63.01542 26814 ft 340 kts 55°
2026-05-07 19:43 -36.68565 -62.96385 26803 ft 340 kts 55°
2026-05-07 19:43 -36.66132 -62.91249 26795 ft 339 kts 54°
2026-05-07 19:43 -36.63725 -62.86171 26783 ft 339 kts 54°
2026-05-07 19:44 -36.61298 -62.81063 26783 ft 338 kts 53°
2026-05-07 19:44 -36.58928 -62.76080 26787 ft 338 kts 52°
2026-05-07 19:44 -36.50838 -62.59112 26837 ft 337 kts 51°
2026-05-07 19:44 -36.41164 -62.38971 26842 ft 336 kts 49°
2026-05-07 19:45 -36.31547 -62.19043 26796 ft 334 kts 46°
2026-05-07 19:45 -36.21878 -61.99143 26739 ft 332 kts 45°
2026-05-07 19:45 -36.12278 -61.79479 26697 ft 329 kts 45°
2026-05-07 19:45 -36.02884 -61.60369 26710 ft 328 kts 45°
2026-05-07 19:46 -35.93391 -61.41162 26752 ft 325 kts 45°
2026-05-07 19:46 -35.83896 -61.22039 26780 ft 322 kts 44°
2026-05-07 19:46 -35.74466 -61.03154 26760 ft 320 kts 44°
2026-05-07 19:46 -35.65177 -60.84700 26716 ft 317 kts 44°
2026-05-07 19:47 -35.55977 -60.66470 26724 ft 314 kts 44°
2026-05-07 19:47 -35.43957 -60.42820 26680 ft 311 kts 44°
2026-05-07 19:47 -35.42821 -60.40586 26672 ft 308 kts 45°
2026-05-07 19:47 -35.41694 -60.38371 26670 ft 305 kts 44°
2026-05-07 19:48 -35.40559 -60.36149 26671 ft 303 kts 44°
2026-05-07 19:48 -35.39591 -60.34255 26666 ft 301 kts 43°
2026-05-07 19:48 -35.38714 -60.32538 26665 ft 299 kts 43°
2026-05-07 19:48 -35.37606 -60.30371 26664 ft 298 kts 43°
2026-05-07 19:49 -35.36498 -60.28212 26665 ft 296 kts 43°
2026-05-07 19:49 -35.35404 -60.26078 26662 ft 295 kts 43°
2026-05-07 19:49 -35.34302 -60.23924 26665 ft 294 kts 43°
2026-05-07 19:49 -35.33184 -60.21756 26297 ft 305 kts 43°
2026-05-07 19:50 -35.32042 -60.19534 25650 ft 308 kts 44°
2026-05-07 19:50 -35.30882 -60.17269 24970 ft 311 kts 44°
2026-05-07 19:50 -35.29703 -60.14982 24295 ft 321 kts 44°
2026-05-07 19:50 -35.28476 -60.12590 23595 ft 326 kts 45°
2026-05-07 19:51 -35.27271 -60.10246 22917 ft 328 kts 45°
2026-05-07 19:51 -35.26038 -60.07852 22235 ft 327 kts 46°
2026-05-07 19:51 -35.24815 -60.05469 21564 ft 327 kts 46°
2026-05-07 19:51 -35.23602 -60.03111 20906 ft 326 kts 46°
2026-05-07 19:52 -35.22378 -60.00742 20251 ft 326 kts 47°
2026-05-07 19:52 -35.21153 -59.98368 19723 ft 322 kts 47°
2026-05-07 19:52 -35.19970 -59.96071 19668 ft 314 kts 47°
2026-05-07 19:52 -35.18783 -59.93784 19667 ft 317 kts 47°
2026-05-07 19:53 -35.17594 -59.91487 19666 ft 320 kts 47°
2026-05-07 19:53 -35.16369 -59.89120 19666 ft 321 kts 47°
2026-05-07 19:53 -35.15165 -59.86795 19666 ft 321 kts 47°
2026-05-07 19:53 -35.13947 -59.84445 19665 ft 322 kts 47°
2026-05-07 19:54 -35.12760 -59.82156 19666 ft 321 kts 47°
2026-05-07 19:54 -35.11533 -59.79791 19667 ft 322 kts 47°
2026-05-07 19:54 -35.10328 -59.77471 19666 ft 322 kts 47°
2026-05-07 19:54 -35.09103 -59.75113 19666 ft 321 kts 47°
2026-05-07 19:55 -35.07880 -59.72763 19666 ft 321 kts 47°
2026-05-07 19:55 -35.06666 -59.70429 19666 ft 321 kts 47°
2026-05-07 19:55 -35.05444 -59.68082 19666 ft 321 kts 47°
2026-05-07 19:55 -35.04240 -59.65773 19666 ft 322 kts 47°
2026-05-07 19:56 -35.03002 -59.63400 19668 ft 322 kts 47°
2026-05-07 19:56 -35.01738 -59.61087 19328 ft 333 kts 46°
2026-05-07 19:56 -35.00527 -59.58841 19064 ft 313 kts 46°
2026-05-07 19:56 -34.99317 -59.56638 18383 ft 304 kts 46°
2026-05-07 19:57 -34.98151 -59.54518 17762 ft 298 kts 46°
2026-05-07 19:57 -34.97004 -59.52439 17157 ft 296 kts 46°
2026-05-07 19:57 -34.95833 -59.50308 16538 ft 298 kts 47°
2026-05-07 19:57 -34.94654 -59.48164 15915 ft 300 kts 48°
2026-05-07 19:58 -34.93476 -59.46022 15298 ft 301 kts 49°
2026-05-07 19:58 -34.92291 -59.43864 14675 ft 298 kts 50°
2026-05-07 19:58 -34.91137 -59.41766 14073 ft 293 kts 50°
2026-05-07 19:58 -34.90011 -59.39720 13493 ft 289 kts 51°
2026-05-07 19:59 -34.88894 -59.37696 12925 ft 286 kts 52°
2026-05-07 19:59 -34.87775 -59.35671 12357 ft 283 kts 53°
2026-05-07 19:59 -34.86689 -59.33703 11802 ft 281 kts 53°
2026-05-07 19:59 -34.85601 -59.31734 11246 ft 279 kts 53°
2026-05-07 20:00 -34.84528 -59.29792 10699 ft 278 kts 54°
2026-05-07 20:00 -34.83460 -59.27862 10158 ft 276 kts 54°
2026-05-07 20:00 -34.82384 -59.25915 9613 ft 275 kts 54°
2026-05-07 20:00 -34.81321 -59.23998 9056 ft 276 kts 55°
2026-05-07 20:01 -34.80252 -59.22070 8604 ft 271 kts 55°
2026-05-07 20:01 -34.79214 -59.20194 8197 ft 267 kts 56°
2026-05-07 20:01 -34.78182 -59.18330 7840 ft 263 kts 55°
2026-05-07 20:01 -34.77161 -59.16493 7488 ft 259 kts 56°
2026-05-07 20:02 -34.76147 -59.14667 7141 ft 256 kts 56°
2026-05-07 20:02 -34.75136 -59.12847 6781 ft 254 kts 56°
2026-05-07 20:02 -34.74155 -59.11078 6673 ft 243 kts 56°
2026-05-07 20:02 -34.73218 -59.09392 6616 ft 233 kts 55°
2026-05-07 20:03 -34.72319 -59.07773 6587 ft 228 kts 54°
2026-05-07 20:03 -34.71411 -59.06149 6586 ft 229 kts 56°
2026-05-07 20:03 -34.70503 -59.04519 6586 ft 230 kts 56°
2026-05-07 20:03 -34.69534 -59.02780 6592 ft 254 kts 55°
2026-05-07 20:04 -34.68513 -59.00945 6588 ft 261 kts 55°
2026-05-07 20:04 -34.67500 -58.99127 6588 ft 260 kts 54°
2026-05-07 20:04 -34.66481 -58.97307 6587 ft 259 kts 57°
2026-05-07 20:04 -34.65459 -58.95466 6586 ft 259 kts 56°
2026-05-07 20:05 -34.64444 -58.93649 6589 ft 259 kts 56°
2026-05-07 20:05 -34.63434 -58.91839 6551 ft 260 kts 55°
2026-05-07 20:05 -34.62345 -58.89897 6210 ft 293 kts 57°
2026-05-07 20:05 -34.61236 -58.87912 6653 ft 268 kts 55°
2026-05-07 20:06 -34.60214 -58.86083 6286 ft 251 kts 55°
2026-05-07 20:06 -34.59239 -58.84344 5893 ft 245 kts 56°
2026-05-07 20:06 -34.58289 -58.82642 5614 ft 234 kts 54°
2026-05-07 20:06 -34.57386 -58.81037 5587 ft 226 kts 54°
2026-05-07 20:07 -34.56807 -58.79246 5589 ft 223 kts 82°
2026-05-07 20:07 -34.56847 -58.77390 5589 ft 218 kts 106°
2026-05-07 20:07 -34.57247 -58.75597 5589 ft 217 kts 113°
2026-05-07 20:07 -34.57731 -58.73809 5589 ft 218 kts 114°
2026-05-07 20:08 -34.58214 -58.72052 5588 ft 213 kts 114°
2026-05-07 20:08 -34.58674 -58.70387 5582 ft 198 kts 114°
2026-05-07 20:08 -34.59106 -58.68821 5585 ft 186 kts 115°
2026-05-07 20:08 -34.59524 -58.67312 5589 ft 187 kts 115°
2026-05-07 20:09 -34.59942 -58.65800 5588 ft 187 kts 115°
2026-05-07 20:09 -34.60363 -58.64276 5588 ft 187 kts 115°
2026-05-07 20:09 -34.60778 -58.62754 5586 ft 189 kts 113°
2026-05-07 20:10 -34.61606 -58.59655 5591 ft 197 kts 114°
2026-05-07 20:10 -34.62043 -58.58026 5591 ft 203 kts 113°
2026-05-07 20:10 -34.62481 -58.56382 5592 ft 208 kts 113°
2026-05-07 20:10 -34.62940 -58.54671 5591 ft 212 kts 112°
2026-05-07 20:11 -34.63399 -58.52948 5591 ft 215 kts 112°
2026-05-07 20:11 -34.63870 -58.51184 5588 ft 217 kts 113°
2026-05-07 20:11 -34.64344 -58.49410 5590 ft 218 kts 113°
2026-05-07 20:11 -34.64820 -58.47625 5589 ft 218 kts 114°
2026-05-07 20:12 -34.65297 -58.45835 5541 ft 222 kts 112°
2026-05-07 20:12 -34.65796 -58.43953 5149 ft 242 kts 111°
2026-05-07 20:12 -34.66323 -58.41938 4768 ft 250 kts 113°
2026-05-07 20:12 -34.66850 -58.39978 4424 ft 233 kts 111°
2026-05-07 20:13 -34.67332 -58.38155 4378 ft 212 kts 114°
2026-05-07 20:13 -34.67796 -58.36445 4322 ft 214 kts 115°
2026-05-07 20:13 -34.68280 -58.34630 4051 ft 230 kts 112°
2026-05-07 20:13 -34.68773 -58.32755 3676 ft 231 kts 112°
2026-05-07 20:14 -34.69265 -58.30910 3456 ft 227 kts 110°
2026-05-07 20:14 -34.69748 -58.29050 3225 ft 225 kts 114°
2026-05-07 20:14 -34.70227 -58.27249 3001 ft 223 kts 111°
2026-05-07 20:14 -34.70155 -58.25341 2769 ft 230 kts 69°
2026-05-07 20:15 -34.69115 -58.23954 2606 ft 216 kts 20°
2026-05-07 20:15 -34.67719 -58.23699 2590 ft 192 kts 349°
2026-05-07 20:15 -34.66487 -58.24039 2587 ft 171 kts 326°
2026-05-07 20:15 -34.65549 -58.24803 2583 ft 155 kts 307°
2026-05-07 20:16 -34.64843 -58.25744 2582 ft 146 kts 298°